Tracking 19903 objects as of 16-Oct-2019
HD Live streaming from Space Station
objects crossing your sky now

SL-12 DEB

Track SL-12 DEB now!
10-day predictions


NORAD ID: 27918
Int'l Code: 1987-079AB
Perigee: 1,260.3 km
Apogee: 17,234.0 km
Inclination: 65.4 °
Period: 323.7 minutes
Semi major axis: 15618 km
RCS: 0.3222 m2 (medium)
Launch date: September 16, 1987
Source: Commonwealth of Independent States (former USSR) (CIS)
Launch site: TYURATAM MISSILE AND SPACE COMPLEX (TTMTR)

Note: This is SATELLITE DEBRIS
aabbcc
Your satellite tracking list
Your tracking list is empty




NASA's NSSDC Master Catalog

Two Line Element Set (TLE):
1 27918U 87079AB  19289.21780812  .00000054  00000-0  00000+0 0  9994
2 27918  65.4120 209.4328 5113820  67.2867 337.9874  4.44792883262887
Source of the keplerian elements: AFSPC